[[{"header":{"parameterUnit":"m.s-1","parameterCategory":2,"la1":30.2991,"la2":30.254,"lo1":-89.0895,"lo2":-89.0444,"dy":0.0017,"dx":0.0017,"nx":28,"ny":28,"refTime":"2026-01-30T09:00:00:Z","depth":"0","parameterNumber":2,"parameterNumberName":"U-component_of_CURRENTS"},"data":[0,0,0,0,0,0,0,0,0,0,0,0,0,0,0,0,0,0,0,0,0,0,0,0,0,0,0,0,0,0,0,0,0,0,0,0,0,0,0,0,0,0,0,0,0,0,0,0,0,0,0,0,0,0,0,0,0,0,0.2792,0.2792,0,0.2952,0.2955,0.2958,0.3055,0.3055,0.3054,0.3053,0.2937,0.2934,0.2932,0,0,0,0,0,0,0,0,0,0,0,0,0,0.2822,0.2821,0.2791,0.2792,0.2793,0.2952,0.2955,0.2959,0.3055,0.3055,0.3054,0.3053,0.2937,0.2934,0.2931,0,0,0,0,0,0,0,0,0,0,0,0,0,0.2889,0.282,0.2791,0.2852,0.2858,0.2951,0.2955,0.296,0.3056,0.3055,0.3054,0.3053,0.2938,0.2935,0.2931,0.2927,0,0,0.2919,0.2918,0,0,0,0,0,0,0,0,0.2885,0.289,0.2842,0.2848,0.2854,0.2972,0.2923,0.2931,0.3056,0.2993,0.3053,0.3052,0.2915,0.2913,0.2967,0.2922,0.2917,0.2919,0.2917,0.2915,0.2914,0,0,0,0,0,0,0,0.288,0.2885,0.2868,0.2843,0.285,0.2957,0.2964,0.2928,0.2962,0.2999,0.3003,0.3002,0.2918,0.2971,0.2964,0.2915,0.2919,0.2916,0.2914,0.2912,0.2875,0.2876,0,0,0,0,0,0,0.2823,0.2878,0.2862,0.2871,0.2854,0.2955,0.2964,0.2945,0.2969,0.297,0.3002,0.3006,0.2978,0.2969,0.296,0.2958,0.2915,0.2912,0.291,0.2873,0.2875,0.2876,0,0,0,0,0,0,0.2823,0.2819,0.2856,0.2871,0.2881,0.2952,0.2933,0.2949,0.3003,0.2972,0.2971,0.3038,0.2977,0.2965,0.2943,0.2952,0.291,0.2907,0.2872,0.2874,0.2876,0.2949,0,0,0,0,0,0,0.2823,0.2818,0.2809,0.2865,0.2877,0.2941,0.2933,0.2952,0.2998,0.3004,0.3001,0.2991,0.2975,0.2949,0.2939,0.2946,0.2904,0.287,0.2873,0.2875,0.2945,0.2953,0.296,0,0,0,0,0,0.2823,0.2816,0.2807,0.2806,0.2853,0.2942,0.2963,0.3019,0.3,0.3058,0.3032,0.2991,0.2956,0.2947,0.2935,0.2941,0.2869,0.2872,0.2875,0.2942,0.2952,0.296,0,0,0,0,0,0,0.2854,0.2825,0.2817,0.2808,0.2876,0.2954,0.3003,0.3019,0.3057,0.3047,0.3003,0.2993,0.2983,0.2951,0.2941,0.2941,0.2907,0.2908,0.2962,0.2971,0.2978,0.2995,0.2901,0,0,0,0,0,0.284,0.2808,0.2842,0.2842,0.2872,0.2933,0.2974,0.3015,0.304,0.3061,0.3036,0.3008,0.2991,0.297,0.296,0.2945,0.2958,0.2944,0.2952,0.2958,0.2966,0.3011,0.3024,0.2886,0.2885,0.2885,0,0,0.2873,0.2829,0.2832,0.2844,0.2898,0.2958,0.2962,0.3038,0.3071,0.3029,0.305,0.3033,0.2995,0.3002,0.2992,0.2969,0.3009,0.2962,0.2968,0.2972,0.3016,0.3029,0.3041,0.2887,0.2887,0.2887,0,0,0.2908,0.2869,0.2872,0.2922,0.2969,0.2994,0.3007,0.3079,0.3104,0.312,0.3098,0.3091,0.305,0.3052,0.3034,0.307,0.3055,0.3055,0.3095,0.3139,0.3151,0.3162,0.3218,0.3233,0.3051,0.3051,0.3051,0,0.2915,0.2918,0.2909,0.2942,0.298,0.2998,0.3066,0.3097,0.3146,0.3157,0.3127,0.3118,0.3079,0.3091,0.3107,0.3086,0.3115,0.3061,0.3151,0.3161,0.3171,0.3226,0.3242,0.3055,0.3055,0.3054,0.3054,0,0.297,0.2996,0.3016,0.3018,0.3082,0.3139,0.3173,0.321,0.3191,0.3208,0.3224,0.3197,0.3195,0.3178,0.3141,0.3191,0.3193,0.3164,0.313,0.319,0.3244,0.3259,0.3061,0.3059,0.3058,0.3057,0,0,0.2895,0.301,0.3018,0.3065,0.312,0.3174,0.3222,0.3271,0.3294,0.3303,0.3335,0.3305,0.3298,0.328,0.3251,0.3269,0.3356,0.3242,0.3243,0.3303,0.3476,0.3525,0.3545,0.3346,0.3349,0.335,0.3495,0,0.2921,0.2978,0.3045,0.3153,0.3204,0.3265,0.331,0.3364,0.3368,0.3399,0.3377,0.3389,0.3331,0.3338,0.3352,0.3352,0.3395,0.332,0.3404,0.3407,0.3447,0.3564,0.3607,0.3744,0.3509,0.3512,0.3513,0,0.2952,0.2965,0.3062,0.3204,0.3238,0.3296,0.337,0.3431,0.348,0.3502,0.3522,0.3503,0.3529,0.3467,0.3525,0.3483,0.3494,0.349,0.3495,0.3524,0.3484,0.3641,0.3779,0.3786,0.3536,0.3534,0.3533,0,0.2893,0.3002,0.3053,0.31,0.3239,0.3297,0.3358,0.344,0.3509,0.3566,0.3608,0.3632,0.3647,0.3666,0.3653,0.3603,0.3726,0.3656,0.3721,0.3725,0.3769,0.3773,0.3927,0.3726,0.3726,0.3725,0.3725,0,0.2881,0.2932,0.3017,0.3071,0.3146,0.3258,0.3366,0.3446,0.3549,0.3621,0.3648,0.3701,0.3696,0.3746,0.3728,0.3797,0.3801,0.377,0.378,0.3798,0.3802,0.3812,0.3759,0.3731,0.373,0.3729,0.3728,0,0.2822,0.2897,0.2978,0.3097,0.3155,0.3195,0.3402,0.3463,0.3567,0.3664,0.3691,0.3782,0.3859,0.3877,0.3924,0.3908,0.3918,0.3974,0.4006,0.4016,0.4059,0.4007,0.3983,0.3868,0.4079,0.4082,0.4084,0,0.2796,0.2823,0.2977,0.3056,0.3113,0.321,0.3309,0.3461,0.3525,0.37,0.3726,0.3853,0.3942,0.4081,0.4108,0.4176,0.4024,0.4215,0.4116,0.4118,0.4066,0.3871,0.3758,0.4213,0.4216,0.4218,0.422,0,0.2729,0.278,0.2843,0.3017,0.313,0.3226,0.3348,0.341,0.3557,0.3658,0.3788,0.3895,0.4079,0.4181,0.4291,0.4324,0.4133,0.4264,0.4264,0.4203,0.4002,0.3879,0.4059,0.424,0.4238,0.4237,0.4236,0.4235,0.2683,0.2681,0.2832,0.2989,0.3108,0.32,0.3247,0.3351,0.3474,0.3584,0.3752,0.3927,0.4199,0.4392,0.4381,0.4492,0.4283,0.4442,0.4388,0.4197,0.4058,0.4296,0.4477,0.4476,0.4475,0.4475,0.4474,0,0.2624,0.2674,0.2828,0.2999,0.3089,0.3177,0.3256,0.3257,0.3324,0.3536,0.3675,0.4045,0.4278,0.4459,0.4662,0.462,0.4425,0.4575,0.4334,0.4213,0.4486,0.4469,0.466,0.466,0.466,0.466,0.466,0.466,0.2604,0.2708,0.2805,0.2974,0.3056,0.3069,0.3072,0.3076,0.3193,0.3384,0.3598,0.3815,0.4284,0.4758,0.4865,0.4792,0.446,0.4419,0.4244,0.4524,0.4507,0.449,0.4467,0.4653,0.4653,0.3903,0.3898,0.3894]},{"header":{"parameterUnit":"m.s-1","parameterCategory":2,"la1":30.2991,"la2":30.254,"lo1":-89.0895,"lo2":-89.0444,"dy":0.0017,"dx":0.0017,"nx":28,"ny":28,"refTime":"2026-01-30T09:00:00:Z","depth":"0","parameterNumber":3,"parameterNumberName":"V-component_of_CURRENTS"},"data":[0,0,0,0,0,0,0,0,0,0,0,0,0,0,0,0,0,0,0,0,0,0,0,0,0,0,0,0,0,0,0,0,0,0,0,0,0,0,0,0,0,0,0,0,0,0,0,0,0,0,0,0,0,0,0,0,0,0,-0.0206,-0.0207,0,-0.0426,-0.0429,-0.0433,-0.0559,-0.0559,-0.0558,-0.0558,-0.0541,-0.0541,-0.0541,0,0,0,0,0,0,0,0,0,0,0,0,0,-0.0182,-0.0181,-0.0205,-0.0207,-0.0209,-0.0425,-0.0429,-0.0433,-0.0559,-0.0559,-0.0558,-0.0558,-0.0541,-0.0541,-0.0541,0,0,0,0,0,0,0,0,0,0,0,0,0,-0.0285,-0.018,-0.0205,-0.0291,-0.03,-0.0425,-0.043,-0.0435,-0.0559,-0.0559,-0.0558,-0.0558,-0.0541,-0.0541,-0.0541,-0.0553,0,0,-0.054,-0.054,0,0,0,0,0,0,0,0,-0.0278,-0.0286,-0.0276,-0.0285,-0.0296,-0.0456,-0.0415,-0.0459,-0.056,-0.0471,-0.0558,-0.0557,-0.0484,-0.0489,-0.0549,-0.0552,-0.0551,-0.054,-0.054,-0.054,-0.054,0,0,0,0,0,0,0,-0.0271,-0.0279,-0.0303,-0.0278,-0.029,-0.0417,-0.0429,-0.0427,-0.0482,-0.0479,-0.0486,-0.0496,-0.0489,-0.0549,-0.0549,-0.0551,-0.054,-0.054,-0.054,-0.054,-0.051,-0.0509,0,0,0,0,0,0,-0.0209,-0.0271,-0.0296,-0.0308,-0.0274,-0.0415,-0.043,-0.0413,-0.0487,-0.0497,-0.0496,-0.05,-0.055,-0.0549,-0.0548,-0.0511,-0.054,-0.054,-0.054,-0.051,-0.051,-0.0509,0,0,0,0,0,0,-0.0207,-0.0208,-0.0287,-0.0289,-0.0307,-0.0413,-0.0396,-0.0418,-0.0477,-0.0501,-0.0508,-0.053,-0.0549,-0.0548,-0.054,-0.0512,-0.054,-0.054,-0.0511,-0.051,-0.0509,-0.047,0,0,0,0,0,0,-0.0205,-0.0206,-0.0188,-0.0283,-0.0303,-0.036,-0.0396,-0.0422,-0.0479,-0.0487,-0.0532,-0.0532,-0.0549,-0.054,-0.0539,-0.0513,-0.054,-0.0512,-0.0511,-0.0509,-0.0472,-0.0468,-0.0464,0,0,0,0,0,-0.0203,-0.0179,-0.0185,-0.0189,-0.0269,-0.036,-0.0385,-0.0467,-0.048,-0.0517,-0.053,-0.053,-0.053,-0.054,-0.0539,-0.0512,-0.0513,-0.0511,-0.051,-0.0474,-0.0469,-0.0464,0,0,0,0,0,0,-0.0169,-0.0191,-0.02,-0.0184,-0.0261,-0.0377,-0.0417,-0.0462,-0.0515,-0.0509,-0.0528,-0.0529,-0.0512,-0.0517,-0.0527,-0.0499,-0.0518,-0.0516,-0.0491,-0.0486,-0.0482,-0.0468,-0.054,0,0,0,0,0,-0.0143,-0.0127,-0.0189,-0.0183,-0.0213,-0.0312,-0.036,-0.0413,-0.0465,-0.0493,-0.0508,-0.0512,-0.051,-0.0501,-0.0509,-0.0492,-0.0509,-0.0471,-0.0467,-0.0463,-0.0452,-0.0469,-0.0465,-0.0503,-0.0503,-0.0503,0,0,-0.0151,-0.0139,-0.0148,-0.0175,-0.0243,-0.028,-0.0343,-0.0411,-0.043,-0.0471,-0.0485,-0.0501,-0.0504,-0.0495,-0.0485,-0.049,-0.0463,-0.0461,-0.0458,-0.0448,-0.0467,-0.0463,-0.046,-0.0502,-0.0502,-0.0502,0,0,-0.0142,-0.0126,-0.0121,-0.0162,-0.022,-0.027,-0.0277,-0.0374,-0.0407,-0.0426,-0.0449,-0.0448,-0.0452,-0.0457,-0.0454,-0.0425,-0.0446,-0.0421,-0.038,-0.0396,-0.0394,-0.0391,-0.0415,-0.0415,-0.0411,-0.0411,-0.0411,0,-0.0128,-0.0108,-0.0149,-0.0148,-0.0173,-0.0248,-0.0271,-0.0316,-0.0392,-0.0392,-0.0411,-0.042,-0.0431,-0.0405,-0.0405,-0.0413,-0.0434,-0.04,-0.0391,-0.0389,-0.0388,-0.0413,-0.0413,-0.0409,-0.0409,-0.0409,-0.041,0,-0.0113,-0.011,-0.0115,-0.0111,-0.0162,-0.0187,-0.0242,-0.027,-0.0292,-0.0321,-0.0314,-0.0347,-0.0348,-0.035,-0.037,-0.0353,-0.0376,-0.0392,-0.0405,-0.0382,-0.041,-0.0411,-0.0406,-0.0407,-0.0407,-0.0408,0,0,-0.0021,-0.0082,-0.0079,-0.009,-0.013,-0.0171,-0.0183,-0.0211,-0.0192,-0.024,-0.0217,-0.0238,-0.0259,-0.0258,-0.0284,-0.0298,-0.0316,-0.0337,-0.0339,-0.0363,-0.0362,-0.0394,-0.04,-0.0337,-0.0336,-0.0336,-0.039,0,0.002,0.004,-0.0016,-0.0036,-0.0041,-0.0111,-0.0119,-0.0154,-0.0159,-0.0147,-0.0173,-0.016,-0.0219,-0.0217,-0.0243,-0.029,-0.0317,-0.0301,-0.038,-0.0382,-0.0415,-0.0401,-0.0428,-0.0479,-0.0391,-0.0392,-0.0392,0,0.0059,0.0093,0.0088,0.0023,0.001,-0.001,-0.0017,-0.0046,-0.0045,-0.0054,-0.0051,-0.0066,-0.0083,-0.014,-0.0218,-0.0207,-0.0284,-0.0331,-0.0334,-0.0375,-0.0416,-0.0487,-0.0485,-0.0785,-0.0394,-0.0394,-0.0394,0,0.0153,0.0136,0.0151,0.0141,0.0081,0.0065,0.0028,0.0008,0.0012,0.002,0.0051,0.0013,0.0016,-0.0082,-0.0187,-0.0205,-0.0275,-0.0312,-0.0415,-0.0419,-0.0461,-0.0468,-0.0756,-0.0377,-0.0377,-0.0376,-0.0376,0,0.0221,0.0234,0.0209,0.022,0.0239,0.0149,0.0163,0.012,0.0124,0.0173,0.0112,0.0167,0.0031,-0.0018,-0.0149,-0.0279,-0.0253,-0.0403,-0.043,-0.0449,-0.0454,-0.0731,-0.0894,-0.0379,-0.0378,-0.0378,-0.0377,0,0.0296,0.027,0.0299,0.0283,0.0262,0.0282,0.0222,0.0253,0.0234,0.0304,0.0313,0.029,0.0218,0.007,-0.0073,-0.0211,-0.0514,-0.0404,-0.042,-0.0449,-0.083,-0.0987,-0.1225,-0.1387,-0.0527,-0.0528,-0.0529,0,0.032,0.0353,0.0365,0.036,0.0351,0.0359,0.0349,0.0309,0.0367,0.0402,0.0468,0.0423,0.0445,0.0205,-0.0068,-0.0311,-0.0562,-0.0513,-0.0556,-0.0859,-0.1054,-0.1127,-0.1251,-0.0603,-0.0604,-0.0606,-0.0606,0,0.0413,0.0431,0.047,0.0451,0.0446,0.0472,0.0484,0.0568,0.0567,0.0659,0.0775,0.0797,0.0544,0.0317,-0.006,-0.0265,-0.0756,-0.0545,-0.0856,-0.1136,-0.1236,-0.1401,-0.0573,-0.0617,-0.0616,-0.0615,-0.0614,-0.0614,0.049,0.0539,0.0537,0.0519,0.0526,0.059,0.0682,0.0774,0.0907,0.1089,0.1037,0.112,0.0667,0.0165,-0.0176,-0.0865,-0.085,-0.1069,-0.1231,-0.1273,-0.1451,-0.065,-0.0725,-0.0725,-0.0725,-0.0724,-0.0724,0,0.0533,0.0559,0.0557,0.0557,0.0597,0.0587,0.0757,0.0923,0.118,0.1306,0.1419,0.1173,0.0644,0.0028,-0.0866,-0.1417,-0.162,-0.1757,-0.1908,-0.2002,-0.1289,-0.1319,-0.153,-0.153,-0.153,-0.1529,-0.1529,-0.1529,0.0551,0.0555,0.0537,0.0583,0.0622,0.0789,0.0948,0.1229,0.141,0.1591,0.1583,0.149,0.0845,-0.0652,-0.1796,-0.2082,-0.2549,-0.2619,-0.2842,-0.2413,-0.2362,-0.2314,-0.2382,-0.2813,-0.2814,-0.3482,-0.3489,-0.3495]}],[{"header":{"parameterUnit":"m.s-1","parameterCategory":2,"la1":30.2991,"la2":30.254,"lo1":-89.0895,"lo2":-89.0444,"dy":0.0017,"dx":0.0017,"nx":28,"ny":28,"refTime":"2026-01-30T09:00:00:Z","depth":"2","parameterNumber":2,"parameterNumberName":"U-component_of_CURRENTS"},"data":[0,0,0,0,0,0,0,0,0,0,0,0,0,0,0,0,0,0,0,0,0,0,0,0,0,0,0,0,0,0,0,0,0,0,0,0,0,0,0,0,0,0,0,0,0,0,0,0,0,0,0,0,0,0,0,0,0,0,0.2758,0.2759,0,0.2927,0.293,0.2933,0.3036,0.3035,0.3035,0.3034,0.2919,0.2916,0.2914,0,0,0,0,0,0,0,0,0,0,0,0,0,0.2773,0.2772,0.2758,0.2759,0.276,0.2927,0.2931,0.2934,0.3036,0.3035,0.3035,0.3034,0.2919,0.2917,0.2914,0,0,0,0,0,0,0,0,0,0,0,0,0,0.2849,0.2772,0.2758,0.2821,0.2827,0.2926,0.2931,0.2935,0.3037,0.3035,0.3034,0.3033,0.292,0.2917,0.2913,0.2913,0,0,0.2902,0.2901,0,0,0,0,0,0,0,0,0.2844,0.285,0.2811,0.2817,0.2824,0.2948,0.2893,0.2909,0.3037,0.2971,0.3034,0.3033,0.2894,0.2893,0.295,0.2907,0.2902,0.2902,0.29,0.2898,0.2897,0,0,0,0,0,0,0,0.2839,0.2845,0.2839,0.2812,0.282,0.2926,0.2935,0.29,0.2942,0.2977,0.2981,0.2979,0.2897,0.2954,0.2947,0.2901,0.2902,0.2899,0.2897,0.2895,0.2861,0.2862,0,0,0,0,0,0,0.2778,0.2838,0.2833,0.2842,0.2817,0.2924,0.2935,0.292,0.2948,0.295,0.298,0.2983,0.296,0.2951,0.2942,0.2941,0.2898,0.2895,0.2893,0.286,0.2861,0.2862,0,0,0,0,0,0,0.2778,0.2776,0.2826,0.2835,0.2847,0.2922,0.2907,0.2924,0.2983,0.2951,0.295,0.3019,0.2959,0.2947,0.2926,0.2935,0.2893,0.289,0.2858,0.286,0.2862,0.2935,0,0,0,0,0,0,0.2778,0.2775,0.2769,0.283,0.2843,0.2915,0.2907,0.2927,0.2976,0.2983,0.2984,0.2974,0.2957,0.2932,0.2922,0.293,0.2887,0.2856,0.2859,0.2861,0.2931,0.2939,0.2946,0,0,0,0,0,0.2778,0.2774,0.2767,0.2768,0.2823,0.2916,0.2938,0.2997,0.2979,0.3041,0.3014,0.2974,0.294,0.293,0.2919,0.2925,0.2855,0.2858,0.2861,0.2928,0.2937,0.2946,0,0,0,0,0,0,0.2806,0.2785,0.2779,0.2775,0.2847,0.2929,0.2981,0.2999,0.304,0.303,0.2986,0.2976,0.2967,0.2935,0.2925,0.2925,0.2891,0.2892,0.2946,0.2955,0.2962,0.2978,0.2884,0,0,0,0,0,0.2794,0.2768,0.2806,0.2812,0.2844,0.2909,0.2952,0.2994,0.3022,0.3045,0.302,0.2992,0.2975,0.2954,0.2945,0.2931,0.2944,0.293,0.2937,0.2944,0.2951,0.2997,0.3009,0.2872,0.2872,0.2871,0,0,0.2829,0.2788,0.2795,0.2813,0.2872,0.2934,0.2939,0.302,0.3053,0.3011,0.3035,0.3017,0.298,0.2987,0.2977,0.2954,0.2995,0.2947,0.2953,0.2957,0.3001,0.3014,0.3026,0.2873,0.2873,0.2873,0,0,0.2867,0.2834,0.2843,0.2895,0.2945,0.2972,0.2986,0.3062,0.3088,0.3105,0.3082,0.3076,0.3036,0.3036,0.3019,0.3055,0.304,0.3041,0.308,0.3124,0.3136,0.3146,0.3203,0.3218,0.3036,0.3036,0.3036,0,0.2879,0.2885,0.2882,0.2917,0.2956,0.2977,0.3048,0.308,0.3131,0.3142,0.3112,0.3103,0.3064,0.3076,0.3092,0.3071,0.31,0.3046,0.3135,0.3146,0.3155,0.321,0.3226,0.304,0.304,0.3039,0.3039,0,0.2935,0.2966,0.2989,0.2997,0.3062,0.3122,0.3157,0.3194,0.3176,0.3193,0.3208,0.3182,0.318,0.3162,0.3126,0.3175,0.3177,0.3148,0.3115,0.3174,0.3228,0.3243,0.3046,0.3044,0.3043,0.3042,0,0,0.2866,0.2986,0.2995,0.3044,0.3101,0.3157,0.3205,0.3256,0.3278,0.3287,0.3319,0.3288,0.3282,0.3264,0.3234,0.3252,0.3339,0.3226,0.3227,0.3287,0.3459,0.3507,0.3527,0.333,0.3332,0.3334,0.3478,0,0.2894,0.2954,0.3023,0.3134,0.3187,0.325,0.3295,0.3349,0.3352,0.3383,0.336,0.3372,0.3315,0.3321,0.3335,0.3336,0.3378,0.3304,0.3388,0.3391,0.343,0.3546,0.3012,0.3099,0.3492,0.3495,0.3496,0,0.2926,0.2938,0.3039,0.3185,0.3221,0.3281,0.3354,0.3414,0.3463,0.3484,0.3504,0.3485,0.351,0.3449,0.3507,0.3465,0.3476,0.3473,0.3478,0.3506,0.3466,0.3098,0.3111,0.3521,0.3519,0.3517,0.3516,0,0.2866,0.2978,0.3031,0.3078,0.3219,0.328,0.3342,0.3423,0.3493,0.3548,0.359,0.3613,0.3628,0.3648,0.3635,0.3585,0.3707,0.3638,0.3703,0.3706,0.3259,0.3221,0.3708,0.3708,0.3708,0.3708,0.3707,0,0.2855,0.2907,0.2994,0.3048,0.3124,0.3238,0.3348,0.3429,0.3532,0.3603,0.3629,0.3682,0.3677,0.3727,0.3709,0.3778,0.3782,0.3752,0.3761,0.3276,0.3239,0.3593,0.3578,0.3713,0.3712,0.3711,0.371,0,0.2795,0.2872,0.2952,0.3073,0.3133,0.3172,0.3386,0.3447,0.355,0.3646,0.3673,0.3763,0.3839,0.3857,0.3904,0.3888,0.3933,0.3954,0.3409,0.3355,0.3882,0.3869,0.4052,0.4056,0.4058,0.4061,0.4063,0,0.2769,0.2796,0.295,0.3031,0.3091,0.3188,0.329,0.3444,0.3507,0.3681,0.3707,0.3833,0.3879,0.4018,0.3846,0.3857,0.4054,0.3593,0.3415,0.3935,0.3925,0.3907,0.389,0.2833,0.2824,0.2818,0.2812,0,0.2699,0.275,0.2812,0.2991,0.3107,0.3204,0.333,0.3392,0.354,0.3597,0.3726,0.3791,0.3791,0.3543,0.3579,0.3529,0.3546,0.3472,0.4111,0.2885,0.2811,0.2794,0.2811,0.2751,0.2757,0.2762,0.2765,0.2768,0.265,0.2648,0.2802,0.2962,0.3083,0.3179,0.3227,0.3193,0.3258,0.3176,0.3471,0.3349,0.3336,0.3046,0.2994,0.2933,0.3185,0.3123,0.3129,0.3146,0.3036,0.2978,0.2927,0.2934,0.294,0.2945,0.295,0,0.2533,0.2644,0.2801,0.2975,0.2955,0.3157,0.3238,0.3064,0.29,0.2844,0.2792,0.2526,0.2333,0.2441,0.2101,0.219,0.1994,0.23,0.1945,0.2005,0.2058,0.1881,0.1472,0.147,0.1468,0.1465,0,0,0.2497,0.255,0.2648,0.2733,0.2899,0.2787,0.2786,0.2541,0.2365,0.2076,0.195,0.1961,0.2217,0.1716,0.1686,0.1547,0.1773,0.1495,0.264,0.2266,0.2317,0.2466,0.2257,0,0,0,0,0]},{"header":{"parameterUnit":"m.s-1","parameterCategory":2,"la1":30.2991,"la2":30.254,"lo1":-89.0895,"lo2":-89.0444,"dy":0.0017,"dx":0.0017,"nx":28,"ny":28,"refTime":"2026-01-30T09:00:00:Z","depth":"2","parameterNumber":3,"parameterNumberName":"V-component_of_CURRENTS"},"data":[0,0,0,0,0,0,0,0,0,0,0,0,0,0,0,0,0,0,0,0,0,0,0,0,0,0,0,0,0,0,0,0,0,0,0,0,0,0,0,0,0,0,0,0,0,0,0,0,0,0,0,0,0,0,0,0,0,0,-0.0167,-0.0168,0,-0.0393,-0.0396,-0.04,-0.0531,-0.053,-0.053,-0.0529,-0.0513,-0.0513,-0.0513,0,0,0,0,0,0,0,0,0,0,0,0,0,-0.0133,-0.0132,-0.0167,-0.0169,-0.017,-0.0392,-0.0396,-0.04,-0.0531,-0.053,-0.053,-0.0529,-0.0513,-0.0513,-0.0513,0,0,0,0,0,0,0,0,0,0,0,0,0,-0.0241,-0.0131,-0.0166,-0.0254,-0.0264,-0.0391,-0.0396,-0.0402,-0.0531,-0.053,-0.0529,-0.0529,-0.0513,-0.0513,-0.0513,-0.0527,0,0,-0.0513,-0.0513,0,0,0,0,0,0,0,0,-0.0235,-0.0244,-0.0239,-0.0248,-0.0259,-0.0423,-0.0378,-0.0428,-0.0531,-0.0441,-0.0529,-0.0528,-0.0453,-0.0459,-0.0521,-0.0526,-0.0525,-0.0513,-0.0513,-0.0513,-0.0513,0,0,0,0,0,0,0,-0.0227,-0.0236,-0.0267,-0.0241,-0.0253,-0.0379,-0.0392,-0.0392,-0.0452,-0.0449,-0.0456,-0.0464,-0.0459,-0.0522,-0.0521,-0.0525,-0.0513,-0.0513,-0.0513,-0.0513,-0.0484,-0.0483,0,0,0,0,0,0,-0.0163,-0.0227,-0.026,-0.0273,-0.0233,-0.0378,-0.0394,-0.038,-0.0458,-0.0468,-0.0464,-0.0469,-0.0522,-0.0521,-0.052,-0.0484,-0.0513,-0.0513,-0.0513,-0.0485,-0.0484,-0.0483,0,0,0,0,0,0,-0.0161,-0.0162,-0.025,-0.0249,-0.0267,-0.0376,-0.0362,-0.0385,-0.0448,-0.0471,-0.0478,-0.0502,-0.0521,-0.052,-0.0512,-0.0485,-0.0513,-0.0513,-0.0485,-0.0484,-0.0483,-0.0444,0,0,0,0,0,0,-0.0158,-0.016,-0.0145,-0.0243,-0.0264,-0.0327,-0.0362,-0.0389,-0.0448,-0.0457,-0.0504,-0.0504,-0.0521,-0.0512,-0.0512,-0.0485,-0.0513,-0.0486,-0.0485,-0.0484,-0.0447,-0.0442,-0.0438,0,0,0,0,0,-0.0156,-0.0135,-0.0142,-0.0147,-0.0233,-0.0327,-0.0352,-0.0437,-0.045,-0.049,-0.0502,-0.0502,-0.0502,-0.0512,-0.0512,-0.0484,-0.0487,-0.0485,-0.0484,-0.0448,-0.0443,-0.0438,0,0,0,0,0,0,-0.0121,-0.0148,-0.0158,-0.0147,-0.0225,-0.0344,-0.0386,-0.0433,-0.0488,-0.0482,-0.0501,-0.0502,-0.0485,-0.049,-0.05,-0.0472,-0.0491,-0.0489,-0.0464,-0.0459,-0.0455,-0.044,-0.0513,0,0,0,0,0,-0.0096,-0.0085,-0.0149,-0.0147,-0.0178,-0.028,-0.0329,-0.0383,-0.0437,-0.0466,-0.0482,-0.0485,-0.0483,-0.0474,-0.0482,-0.0466,-0.0483,-0.0445,-0.0441,-0.0437,-0.0426,-0.0443,-0.0439,-0.0477,-0.0477,-0.0477,0,0,-0.0106,-0.0095,-0.0108,-0.014,-0.021,-0.0249,-0.0313,-0.0383,-0.0402,-0.0443,-0.0458,-0.0474,-0.0478,-0.0468,-0.0459,-0.0463,-0.0437,-0.0435,-0.0432,-0.0422,-0.0441,-0.0437,-0.0434,-0.0476,-0.0476,-0.0476,0,0,-0.01,-0.0088,-0.0087,-0.013,-0.0189,-0.024,-0.0248,-0.0347,-0.0381,-0.04,-0.0423,-0.0422,-0.0426,-0.043,-0.0427,-0.0399,-0.042,-0.0394,-0.0353,-0.037,-0.0367,-0.0365,-0.0389,-0.0389,-0.0385,-0.0385,-0.0384,0,-0.0089,-0.0071,-0.0116,-0.0117,-0.0142,-0.0219,-0.0243,-0.029,-0.0366,-0.0366,-0.0385,-0.0394,-0.0405,-0.0379,-0.0378,-0.0387,-0.0407,-0.0373,-0.0365,-0.0363,-0.0361,-0.0387,-0.0387,-0.0382,-0.0383,-0.0383,-0.0383,0,-0.0075,-0.0076,-0.0082,-0.0082,-0.0134,-0.0161,-0.0216,-0.0245,-0.0266,-0.0295,-0.0288,-0.0321,-0.0322,-0.0324,-0.0344,-0.0326,-0.0349,-0.0365,-0.0379,-0.0355,-0.0383,-0.0385,-0.0379,-0.038,-0.0381,-0.0381,0,0,0.0012,-0.0052,-0.0049,-0.0061,-0.0103,-0.0144,-0.0157,-0.0185,-0.0165,-0.0214,-0.019,-0.0211,-0.0232,-0.0231,-0.0258,-0.0271,-0.029,-0.0311,-0.0313,-0.0336,-0.0336,-0.0369,-0.0374,-0.031,-0.031,-0.031,-0.0364,0,0.0052,0.0071,0.0014,-0.0008,-0.0015,-0.0086,-0.0094,-0.0129,-0.0133,-0.0121,-0.0146,-0.0133,-0.0192,-0.019,-0.0216,-0.0263,-0.029,-0.0274,-0.0353,-0.0355,-0.0389,-0.0375,-0.0307,-0.0351,-0.0365,-0.0365,-0.0366,0,0.0089,0.0124,0.0118,0.0051,0.0036,0.0015,0.0009,-0.0019,-0.0018,-0.0027,-0.0024,-0.0039,-0.0056,-0.0113,-0.0191,-0.018,-0.0257,-0.0304,-0.0308,-0.0349,-0.039,-0.0375,-0.0353,-0.0368,-0.0368,-0.0368,-0.0368,0,0.0185,0.0165,0.0181,0.017,0.0108,0.0091,0.0054,0.0034,0.0038,0.0047,0.0078,0.004,0.0043,-0.0056,-0.0161,-0.0178,-0.0249,-0.0285,-0.0389,-0.0393,-0.0354,-0.0355,-0.0351,-0.0351,-0.035,-0.035,-0.035,0,0.0251,0.0264,0.0239,0.025,0.0268,0.0177,0.019,0.0146,0.0151,0.02,0.0139,0.0194,0.0058,0.0009,-0.0123,-0.0253,-0.0227,-0.0377,-0.0405,-0.0341,-0.0339,-0.0367,-0.0369,-0.0352,-0.0352,-0.0352,-0.0351,0,0.0327,0.03,0.0329,0.0313,0.0291,0.0311,0.0248,0.0279,0.0261,0.033,0.0339,0.0316,0.0244,0.0096,-0.0047,-0.0185,-0.0319,-0.0379,-0.03,-0.0318,-0.0466,-0.0464,-0.05,-0.0501,-0.0503,-0.0504,-0.0505,0,0.0351,0.0384,0.0396,0.039,0.038,0.0387,0.0375,0.0335,0.0393,0.0428,0.0494,0.0449,0.0471,0.023,-0.0006,-0.0241,-0.0316,-0.0391,-0.042,-0.0456,-0.0479,-0.0475,-0.0472,-0.0355,-0.0355,-0.0354,-0.0354,0,0.0445,0.0463,0.0502,0.0481,0.0475,0.05,0.051,0.0594,0.0593,0.069,0.0806,0.0827,0.0602,0.0405,0.0037,-0.0125,-0.0352,-0.0395,-0.0429,-0.0335,-0.0326,-0.0347,-0.0347,-0.0351,-0.0352,-0.0352,-0.0352,-0.0352,0.0523,0.0572,0.0569,0.0549,0.0556,0.0618,0.0708,0.082,0.0961,0.1144,0.1066,0.1101,0.0782,0.0378,0.0062,-0.0291,-0.0292,-0.0442,-0.0439,-0.0438,-0.0419,-0.0413,-0.0452,-0.0453,-0.0453,-0.0454,-0.0455,0,0.0612,0.0591,0.0587,0.0585,0.069,0.0613,0.0782,0.098,0.127,0.1335,0.1442,0.1171,0.0871,0.0478,-0.0007,-0.0319,-0.0315,-0.0452,-0.0383,-0.0383,-0.0384,-0.0361,-0.0379,-0.038,-0.0381,-0.0382,0,0,0.0642,0.0679,0.066,0.0744,0.0727,0.0929,0.1088,0.1353,0.1511,0.1697,0.1657,0.1494,0.0988,0.0629,0.0206,-0.0088,-0.0158,-0.0137,-0.0159,-0.0026,-0.0022,-0.0337,-0.0297,0,0,0,0,0]}],[{"header":{"parameterUnit":"m.s-1","parameterCategory":2,"la1":30.2991,"la2":30.254,"lo1":-89.0895,"lo2":-89.0444,"dy":0.0017,"dx":0.0017,"nx":28,"ny":28,"refTime":"2026-01-30T09:00:00:Z","depth":"4","parameterNumber":2,"parameterNumberName":"U-component_of_CURRENTS"},"data":[0,0,0,0,0,0,0,0,0,0,0,0,0,0,0,0,0,0,0,0,0,0,0,0,0,0,0,0,0,0,0,0,0,0,0,0,0,0,0,0,0,0,0,0,0,0,0,0,0,0,0,0,0,0,0,0,0,0,0.1409,0.1409,0,0.1309,0.1307,0.1305,0.1254,0.1255,0.1256,0.1257,0.1331,0.1332,0.1333,0,0,0,0,0,0,0,0,0,0,0,0,0,0.125,0.1254,0.1409,0.1409,0.1409,0.131,0.1307,0.1305,0.1253,0.1255,0.1256,0.1258,0.1331,0.1332,0.1333,0,0,0,0,0,0,0,0,0,0,0,0,0,0.124,0.1255,0.1409,0.1381,0.1379,0.131,0.1307,0.1304,0.1253,0.1255,0.1257,0.1258,0.133,0.1332,0.1333,0.1306,0,0,0.1337,0.1337,0,0,0,0,0,0,0,0,0.1241,0.1244,0.1385,0.1383,0.138,0.1307,0.1279,0.1318,0.1253,0.1287,0.1257,0.1259,0.1347,0.1347,0.1302,0.131,0.1313,0.1337,0.1338,0.1338,0.1339,0,0,0,0,0,0,0,0.1242,0.1246,0.1356,0.1385,0.1382,0.127,0.1272,0.1282,0.1301,0.1284,0.1283,0.1293,0.1345,0.1301,0.1305,0.1314,0.1337,0.1338,0.1339,0.1339,0.1457,0.146,0,0,0,0,0,0,0.1296,0.1249,0.1359,0.1354,0.1328,0.1274,0.1275,0.1318,0.1297,0.1298,0.1292,0.1291,0.1298,0.1303,0.1308,0.1403,0.1338,0.134,0.134,0.1455,0.1458,0.146,0,0,0,0,0,0,0.1293,0.1308,0.1363,0.1307,0.1308,0.1279,0.1325,0.1316,0.1305,0.1303,0.1305,0.1297,0.1299,0.1306,0.1357,0.1402,0.134,0.1341,0.1452,0.1456,0.1459,0.1514,0,0,0,0,0,0,0.129,0.1308,0.1353,0.1313,0.1314,0.1332,0.1324,0.1313,0.1313,0.1312,0.1309,0.1314,0.1301,0.1355,0.1358,0.1402,0.1342,0.1449,0.1454,0.1458,0.1509,0.1519,0.1527,0,0,0,0,0,0.1285,0.1326,0.1357,0.137,0.1381,0.1333,0.132,0.1293,0.1313,0.1292,0.1322,0.1316,0.1386,0.1358,0.1361,0.1407,0.1447,0.1453,0.1458,0.1505,0.1517,0.1527,0,0,0,0,0,0,0.1252,0.1325,0.1357,0.1416,0.1392,0.133,0.1321,0.1313,0.1308,0.1331,0.1334,0.1341,0.1406,0.1402,0.137,0.1457,0.142,0.1427,0.1456,0.1467,0.1476,0.147,0.1344,0,0,0,0,0,0.1283,0.1353,0.1363,0.1405,0.1407,0.1375,0.136,0.1343,0.1337,0.1334,0.1352,0.1384,0.142,0.1442,0.146,0.1499,0.1491,0.1537,0.1546,0.1553,0.1554,0.1578,0.1588,0.1478,0.1478,0.1477,0,0,0.1261,0.1332,0.1354,0.1406,0.139,0.1387,0.1366,0.1349,0.1359,0.1351,0.1391,0.1417,0.144,0.1485,0.1515,0.1493,0.1583,0.156,0.1566,0.1562,0.1584,0.1594,0.1604,0.1481,0.1481,0.148,0,0,0.1252,0.1339,0.1382,0.1378,0.1402,0.1398,0.1412,0.1387,0.1393,0.1427,0.1444,0.1497,0.1539,0.1557,0.1575,0.1648,0.1633,0.1671,0.1707,0.1731,0.1739,0.1747,0.1754,0.1762,0.1672,0.1672,0.1672,0,0.1267,0.1319,0.1365,0.1393,0.14,0.1422,0.1419,0.1423,0.1423,0.1445,0.1461,0.1549,0.157,0.1632,0.1662,0.1667,0.1673,0.166,0.174,0.1747,0.1754,0.1759,0.1767,0.1675,0.1675,0.1675,0.1674,0,0.1262,0.1304,0.1318,0.1405,0.14,0.1404,0.1428,0.1453,0.1502,0.1513,0.1593,0.1623,0.1674,0.1701,0.1706,0.1775,0.1762,0.1748,0.1704,0.1768,0.177,0.1777,0.168,0.1679,0.1678,0.1677,0,0,0.1338,0.1337,0.1351,0.1357,0.1415,0.1405,0.1456,0.1496,0.1542,0.1588,0.1646,0.172,0.1749,0.1773,0.1795,0.1822,0.1879,0.1812,0.1812,0.1806,0.1927,0.1814,0.181,0.1881,0.1883,0.1884,0.191,0,0.1353,0.1393,0.1388,0.1394,0.1402,0.1428,0.1462,0.1499,0.1565,0.1632,0.1696,0.1769,0.1776,0.182,0.185,0.1883,0.19,0.1872,0.1879,0.1879,0.1759,0.1815,0.1889,0.1915,0.1917,0.1918,0.1919,0,0.1356,0.1402,0.1411,0.1395,0.1402,0.1423,0.15,0.1516,0.1611,0.1658,0.1745,0.1806,0.1892,0.1881,0.1951,0.1937,0.1937,0.1945,0.1946,0.1822,0.1778,0.1841,0.193,0.1929,0.1929,0.1928,0.1927,0,0.136,0.1397,0.142,0.142,0.1431,0.1451,0.1477,0.1545,0.1574,0.1696,0.1764,0.1853,0.1934,0.1953,0.1998,0.1983,0.2052,0.2025,0.1915,0.1906,0.1973,0.1964,0.2049,0.2049,0.2049,0.2049,0.2049,0,0.1356,0.1372,0.1438,0.1424,0.1458,0.1466,0.1495,0.1531,0.1622,0.1677,0.1788,0.1869,0.1962,0.2024,0.2019,0.1995,0.2069,0.1926,0.1909,0.1997,0.1991,0.1977,0.1968,0.205,0.2049,0.2049,0.2049,0,0.1315,0.1347,0.1367,0.142,0.1424,0.1458,0.1473,0.1498,0.1611,0.1701,0.1756,0.1912,0.1991,0.2046,0.2091,0.2024,0.2005,0.1968,0.2067,0.2054,0.1834,0.1828,0.184,0.1836,0.1833,0.1831,0.1828,0,0.1274,0.1292,0.1352,0.1337,0.1359,0.1398,0.1386,0.1472,0.1518,0.1714,0.1762,0.1914,0.1996,0.1969,0.202,0.1987,0.1957,0.1923,0.1867,0.1832,0.1815,0.1814,0.1812,0.1823,0.1823,0.1822,0.1821,0,0.1221,0.128,0.1301,0.126,0.1258,0.126,0.1292,0.1338,0.1466,0.1607,0.1732,0.1795,0.1879,0.1906,0.19,0.1871,0.1934,0.189,0.1895,0.1842,0.1812,0.1798,0.18,0.181,0.1812,0.1813,0.1813,0,0.1189,0.121,0.1201,0.1147,0.1141,0.1117,0.116,0.1225,0.1289,0.1557,0.1594,0.1747,0.188,0.1847,0.1842,0.1809,0.1767,0.1685,0.17,0.1712,0.1656,0.1598,0.152,0,0,0,0,0,0.1145,0.1097,0.1042,0.0975,0.0976,0.0964,0.1064,0.1143,0.1338,0.1384,0.1491,0.1566,0.1616,0.1683,0.1617,0.1749,0.1747,0.1662,0.1653,0.175,0.1763,0.1706,0,0,0,0,0,0,0.109,0.1068,0.1001,0.0831,0.0766,0.076,0.0842,0.0992,0.1037,0.1256,0.1288,0.1438,0.1493,0.1617,0.1572,0.1586,0.1542,0.1747,0.1742,0.1743,0.1754,0.1764,0.171,0,0,0,0,0]},{"header":{"parameterUnit":"m.s-1","parameterCategory":2,"la1":30.2991,"la2":30.254,"lo1":-89.0895,"lo2":-89.0444,"dy":0.0017,"dx":0.0017,"nx":28,"ny":28,"refTime":"2026-01-30T09:00:00:Z","depth":"4","parameterNumber":3,"parameterNumberName":"V-component_of_CURRENTS"},"data":[0,0,0,0,0,0,0,0,0,0,0,0,0,0,0,0,0,0,0,0,0,0,0,0,0,0,0,0,0,0,0,0,0,0,0,0,0,0,0,0,0,0,0,0,0,0,0,0,0,0,0,0,0,0,0,0,0,0,0.0336,0.0336,0,0.0396,0.0397,0.0399,0.0457,0.0457,0.0457,0.0457,0.0449,0.0449,0.0449,0,0,0,0,0,0,0,0,0,0,0,0,0,0.0416,0.0414,0.0336,0.0336,0.0336,0.0396,0.0398,0.0399,0.0457,0.0457,0.0457,0.0457,0.0449,0.0449,0.0449,0,0,0,0,0,0,0,0,0,0,0,0,0,0.0428,0.0414,0.0336,0.0364,0.0367,0.0395,0.0398,0.04,0.0457,0.0457,0.0457,0.0457,0.0449,0.0449,0.0449,0.0453,0,0,0.0449,0.0449,0,0,0,0,0,0,0,0,0.0427,0.0427,0.036,0.0362,0.0365,0.041,0.0423,0.0411,0.0457,0.0434,0.0457,0.0457,0.0423,0.0426,0.0453,0.0453,0.0452,0.0449,0.0449,0.0449,0.0449,0,0,0,0,0,0,0,0.0426,0.0425,0.037,0.036,0.0363,0.0423,0.0425,0.0423,0.0435,0.0436,0.0438,0.0429,0.0426,0.0453,0.0452,0.0452,0.0449,0.0449,0.0449,0.0449,0.0425,0.0425,0,0,0,0,0,0,0.0391,0.0423,0.0368,0.0371,0.0385,0.0421,0.0423,0.0404,0.0437,0.044,0.0429,0.0431,0.0453,0.0452,0.0452,0.045,0.0449,0.0449,0.0448,0.0426,0.0425,0.0424,0,0,0,0,0,0,0.0393,0.0385,0.0365,0.0392,0.0392,0.0417,0.0398,0.0405,0.044,0.0431,0.0434,0.0455,0.0453,0.0452,0.0452,0.045,0.0448,0.0448,0.0426,0.0425,0.0425,0.0449,0,0,0,0,0,0,0.0395,0.0385,0.0373,0.0388,0.0388,0.0398,0.0397,0.0406,0.0429,0.0434,0.0453,0.0453,0.0452,0.0452,0.0452,0.0449,0.0448,0.0427,0.0426,0.0425,0.0449,0.045,0.045,0,0,0,0,0,0.0397,0.0387,0.0372,0.0366,0.0366,0.0398,0.0407,0.0431,0.043,0.0461,0.0456,0.0453,0.0444,0.0452,0.0452,0.0449,0.0428,0.0426,0.0425,0.0449,0.045,0.045,0,0,0,0,0,0,0.0442,0.039,0.0376,0.0356,0.0376,0.0405,0.0431,0.0436,0.0463,0.046,0.0455,0.0454,0.045,0.0443,0.0452,0.0436,0.0431,0.043,0.045,0.045,0.045,0.0463,0.0448,0,0,0,0,0,0.0432,0.0398,0.0387,0.0379,0.0388,0.0409,0.0426,0.0436,0.045,0.0464,0.0469,0.0459,0.0445,0.0443,0.0438,0.0436,0.0414,0.0429,0.0429,0.043,0.0438,0.0398,0.0396,0.042,0.042,0.042,0,0,0.0458,0.0415,0.0407,0.0384,0.0406,0.0427,0.0424,0.0452,0.0466,0.0453,0.0483,0.0465,0.0443,0.0441,0.0438,0.0437,0.0408,0.0428,0.0429,0.0437,0.0397,0.0394,0.0392,0.0419,0.0419,0.042,0,0,0.0495,0.045,0.0446,0.0455,0.0454,0.0452,0.0457,0.0481,0.0495,0.0506,0.0487,0.047,0.0469,0.0451,0.0437,0.0433,0.041,0.0425,0.0441,0.0402,0.04,0.0398,0.0358,0.0352,0.0426,0.0426,0.0426,0,0.0505,0.05,0.0464,0.0474,0.0485,0.0461,0.0496,0.0499,0.0518,0.0525,0.0516,0.0492,0.0472,0.045,0.0445,0.0435,0.0409,0.0445,0.0404,0.0401,0.0399,0.0358,0.0351,0.0427,0.0427,0.0427,0.0427,0,0.0547,0.0555,0.0567,0.0542,0.056,0.0581,0.0569,0.0579,0.0567,0.0563,0.0552,0.0519,0.0505,0.0483,0.0464,0.0433,0.0418,0.0409,0.0408,0.0398,0.0355,0.0348,0.0429,0.0428,0.0428,0.0428,0,0,0.0524,0.0571,0.0579,0.0606,0.0592,0.0615,0.0621,0.0625,0.0633,0.0613,0.0621,0.0573,0.0548,0.0529,0.0491,0.0451,0.04,0.0425,0.0422,0.0393,0.0311,0.0287,0.0276,0.0384,0.0383,0.0382,0.0285,0,0.0559,0.0597,0.0612,0.0678,0.0707,0.0697,0.0715,0.0712,0.069,0.0685,0.0622,0.0609,0.0564,0.055,0.0501,0.0425,0.0383,0.0427,0.0318,0.0314,0.0301,0.0268,0.0379,0.0279,0.0277,0.0276,0.0275,0,0.0595,0.0608,0.0678,0.0749,0.0765,0.0798,0.0812,0.083,0.0797,0.0781,0.0737,0.0683,0.0609,0.0574,0.0442,0.0472,0.0398,0.0336,0.0331,0.0298,0.0277,0.0291,0.0262,0.0263,0.0264,0.0265,0.0265,0,0.0609,0.0667,0.0718,0.0739,0.0797,0.0842,0.0869,0.0867,0.0891,0.0839,0.0824,0.0732,0.0678,0.0574,0.0431,0.0437,0.0282,0.0277,0.0185,0.0183,0.0225,0.0229,0.0192,0.0192,0.0192,0.0193,0.0193,0,0.0632,0.0679,0.0735,0.0781,0.0854,0.0885,0.0965,0.0969,0.0968,0.0981,0.088,0.0836,0.0675,0.0559,0.0442,0.0282,0.0288,0.0181,0.0154,0.0236,0.0241,0.0219,0.0224,0.0189,0.019,0.019,0.0191,0,0.0652,0.0686,0.0765,0.0847,0.0887,0.0942,0.1055,0.1095,0.1072,0.1074,0.1054,0.0911,0.0745,0.0579,0.0391,0.0295,0.015,0.0098,0.019,0.0171,0.0076,0.0082,-0.0012,-0.0014,-0.0015,-0.0016,-0.0017,0,0.0669,0.0706,0.0831,0.0897,0.095,0.1041,0.112,0.1155,0.1182,0.111,0.11,0.0935,0.0818,0.0527,0.0357,0.0126,0.0099,0.0029,0.0055,0.0071,0.0053,0.0063,0.0071,-0.002,-0.002,-0.0021,-0.0021,0,0.0693,0.0738,0.0814,0.0961,0.1068,0.1165,0.1263,0.128,0.1285,0.1251,0.1115,0.0938,0.0741,0.0512,0.0325,0.0166,0.0075,0.0013,0.0016,0.004,0.006,0.0047,0.0057,-0.0026,-0.0025,-0.0025,-0.0024,0,0.0725,0.0774,0.0902,0.1029,0.1153,0.1253,0.1299,0.1314,0.1334,0.1226,0.1177,0.0944,0.0807,0.0531,0.0363,0.0193,0.0157,0.012,0.0116,0.012,0.0185,0.0232,0.0169,0,0,0,0,0,0.0746,0.0826,0.0962,0.1119,0.1234,0.1312,0.1382,0.1397,0.1372,0.1284,0.1229,0.1035,0.0726,0.0586,0.0413,0.0356,0.0149,0.0149,0.011,-0.0054,-0.0048,0.0004,0,0,0,0,0,0,0.0765,0.0883,0.0973,0.1162,0.1271,0.1405,0.1445,0.1425,0.1364,0.1287,0.1122,0.1009,0.0716,0.0832,0.0416,0.0361,0.0315,0.0,-0.0003,-0.0057,-0.0052,-0.0047,0.0008,0,0,0,0,0]}]]